timestamp,wind_dir_avg,wind_spd_max_dir,wind_spd_avg,wind_spd_gust,battery_voltage,lat,long
2018-05-16 00:00:00+00:00,226.0,224.0,9.09,10.06,,47.59359,-54.27349
2018-05-16 00:10:00+00:00,222.0,220.0,8.28,9.67,,47.59359,-54.27349
2018-05-16 00:20:00+00:00,222.0,222.0,8.75,10.21,,47.59359,-54.27349
2018-05-16 00:30:00+00:00,224.0,232.0,9.38,11.12,,47.59359,-54.27349
2018-05-16 00:40:00+00:00,221.0,221.0,8.95,10.18,,47.59359,-54.27349
2018-05-16 00:50:00+00:00,222.0,229.0,9.0,10.68,,47.59359,-54.27349
2018-05-16 01:00:00+00:00,224.0,226.0,8.88,10.54,,47.59359,-54.27349
2018-05-16 01:10:00+00:00,224.0,224.0,9.66,10.65,,47.59359,-54.27349
2018-05-16 01:20:00+00:00,233.0,235.0,9.8,10.78,,47.59359,-54.27349
2018-05-16 01:30:00+00:00,223.0,228.0,10.96,11.74,,47.59359,-54.27349
2018-05-16 01:40:00+00:00,233.0,236.0,9.86,10.97,,47.59359,-54.27349
2018-05-16 01:50:00+00:00,241.0,240.0,9.09,10.05,,47.59359,-54.27349
2018-05-16 02:00:00+00:00,236.0,236.0,8.93,10.16,,47.59359,-54.27349
2018-05-16 02:10:00+00:00,235.0,236.0,7.67,8.97,,47.59359,-54.27349
2018-05-16 02:20:00+00:00,240.0,240.0,7.32,8.4,,47.59359,-54.27349
2018-05-16 02:30:00+00:00,245.0,249.0,9.32,10.47,,47.59359,-54.27349
2018-05-16 02:40:00+00:00,240.0,238.0,10.03,11.73,,47.59359,-54.27349
2018-05-16 02:50:00+00:00,229.0,231.0,9.33,10.86,,47.59359,-54.27349
2018-05-16 03:00:00+00:00,232.0,232.0,8.82,10.36,,47.59359,-54.27349
2018-05-16 03:10:00+00:00,234.0,242.0,8.72,10.21,,47.59359,-54.27349
2018-05-16 03:20:00+00:00,227.0,232.0,8.54,9.99,,47.59359,-54.27349
2018-05-16 03:30:00+00:00,227.0,232.0,10.34,12.83,,47.59359,-54.27349
2018-05-16 03:40:00+00:00,234.0,234.0,9.06,10.84,,47.59359,-54.27349
2018-05-16 03:50:00+00:00,234.0,237.0,9.28,10.53,,47.59359,-54.27349
2018-05-16 04:00:00+00:00,230.0,222.0,9.89,12.99,,47.59359,-54.27349
2018-05-16 04:10:00+00:00,239.0,239.0,9.47,10.87,,47.59359,-54.27349
2018-05-16 04:20:00+00:00,239.0,243.0,9.5,11.32,,47.59359,-54.27349
2018-05-16 04:30:00+00:00,242.0,242.0,10.3,12.13,,47.59359,-54.27349
2018-05-16 04:40:00+00:00,237.0,238.0,10.73,12.19,,47.59359,-54.27349
2018-05-16 04:50:00+00:00,231.0,232.0,10.43,11.45,,47.59359,-54.27349
2018-05-16 05:00:00+00:00,233.0,230.0,9.83,11.08,,47.59359,-54.27349
2018-05-16 05:10:00+00:00,239.0,242.0,10.97,12.62,,47.59359,-54.27349
2018-05-16 05:20:00+00:00,241.0,241.0,12.07,13.92,,47.59359,-54.27349
2018-05-16 05:30:00+00:00,243.0,247.0,11.23,14.11,,47.59359,-54.27349
2018-05-16 05:40:00+00:00,235.0,237.0,10.98,12.75,,47.59359,-54.27349
2018-05-16 05:50:00+00:00,233.0,232.0,11.69,12.86,,47.59359,-54.27349
2018-05-16 06:00:00+00:00,230.0,230.0,11.75,13.47,,47.59359,-54.27349
2018-05-16 06:10:00+00:00,229.0,230.0,12.18,13.83,,47.59359,-54.27349
2018-05-16 06:20:00+00:00,223.0,222.0,10.09,11.54,,47.59359,-54.27349
2018-05-16 06:30:00+00:00,221.0,224.0,10.02,11.24,,47.59359,-54.27349
2018-05-16 06:40:00+00:00,219.0,219.0,8.65,10.34,,47.59359,-54.27349
2018-05-16 06:50:00+00:00,219.0,222.0,9.68,10.68,,47.59359,-54.27349
2018-05-16 07:00:00+00:00,220.0,221.0,10.24,11.16,,47.59359,-54.27349
2018-05-16 07:10:00+00:00,226.0,222.0,9.91,11.62,,47.59359,-54.27349
2018-05-16 07:20:00+00:00,229.0,231.0,9.15,10.79,,47.59359,-54.27349
2018-05-16 07:30:00+00:00,230.0,231.0,9.19,10.2,,47.59359,-54.27349
2018-05-16 07:40:00+00:00,225.0,228.0,9.77,11.17,,47.59359,-54.27349
2018-05-16 07:50:00+00:00,230.0,234.0,7.92,9.1,,47.59359,-54.27349
2018-05-16 08:00:00+00:00,226.0,228.0,7.78,8.4,,47.59359,-54.27349
2018-05-16 08:10:00+00:00,231.0,230.0,7.28,7.82,,47.59359,-54.27349
2018-05-16 08:20:00+00:00,233.0,231.0,5.69,6.51,,47.59359,-54.27349
2018-05-16 08:30:00+00:00,235.0,237.0,6.9,7.58,,47.59359,-54.27349
2018-05-16 08:40:00+00:00,242.0,240.0,6.14,6.73,,47.59359,-54.27349
2018-05-16 08:50:00+00:00,239.0,242.0,6.54,7.4,,47.59359,-54.27349
2018-05-16 09:00:00+00:00,260.0,257.0,4.19,4.95,,47.59359,-54.27349
2018-05-16 09:10:00+00:00,266.0,268.0,3.97,5.72,,47.59359,-54.27349
2018-05-16 09:20:00+00:00,247.0,247.0,2.86,4.31,,47.59359,-54.27349
2018-05-16 09:30:00+00:00,247.0,250.0,1.64,2.13,,47.59359,-54.27349
2018-05-16 09:40:00+00:00,224.0,228.0,2.08,2.63,,47.59359,-54.27349
2018-05-16 09:50:00+00:00,239.0,235.0,3.55,4.09,,47.59359,-54.27349
2018-05-16 10:00:00+00:00,268.0,271.0,4.3,7.59,,47.59359,-54.27349
2018-05-16 10:10:00+00:00,320.0,322.0,2.55,4.22,,47.59359,-54.27349
2018-05-16 10:20:00+00:00,291.0,297.0,3.07,4.32,,47.59359,-54.27349
2018-05-16 10:30:00+00:00,285.0,308.0,2.01,2.82,,47.59359,-54.27349
2018-05-16 10:40:00+00:00,289.0,290.0,3.2,4.04,,47.59359,-54.27349
2018-05-16 10:50:00+00:00,333.0,343.0,4.4,6.45,,47.59359,-54.27349
2018-05-16 11:00:00+00:00,338.0,343.0,5.39,6.94,,47.59359,-54.27349
2018-05-16 11:10:00+00:00,352.0,343.0,3.19,4.9,,47.59359,-54.27349
2018-05-16 11:20:00+00:00,343.0,346.0,9.03,10.7,,47.59359,-54.27349
2018-05-16 11:30:00+00:00,349.0,353.0,9.06,10.47,,47.59359,-54.27349
2018-05-16 11:40:00+00:00,348.0,345.0,7.8,8.64,,47.59359,-54.27349
2018-05-16 11:50:00+00:00,348.0,347.0,8.67,9.79,,47.59359,-54.27349
2018-05-16 12:00:00+00:00,341.0,345.0,7.04,8.09,,47.59359,-54.27349
2018-05-16 12:10:00+00:00,349.0,353.0,8.98,12.11,,47.59359,-54.27349
2018-05-16 12:20:00+00:00,350.0,348.0,7.75,9.54,,47.59359,-54.27349
2018-05-16 12:30:00+00:00,353.0,351.0,9.27,10.31,,47.59359,-54.27349
2018-05-16 12:40:00+00:00,342.0,342.0,9.36,11.18,,47.59359,-54.27349
2018-05-16 12:50:00+00:00,334.0,334.0,8.35,9.33,,47.59359,-54.27349
2018-05-16 13:00:00+00:00,358.0,1.0,8.04,9.09,,47.59359,-54.27349
2018-05-16 13:10:00+00:00,338.0,344.0,9.83,11.25,,47.59359,-54.27349
2018-05-16 13:20:00+00:00,337.0,334.0,9.08,10.12,,47.59359,-54.27349
2018-05-16 13:30:00+00:00,346.0,348.0,8.82,10.89,,47.59359,-54.27349
2018-05-16 13:40:00+00:00,354.0,348.0,6.84,7.36,,47.59359,-54.27349
2018-05-16 13:50:00+00:00,351.0,353.0,6.99,7.61,,47.59359,-54.27349
2018-05-16 14:00:00+00:00,337.0,344.0,7.6,9.12,,47.59359,-54.27349
2018-05-16 14:10:00+00:00,346.0,344.0,7.95,9.09,,47.59359,-54.27349
2018-05-16 14:20:00+00:00,346.0,345.0,6.99,7.65,,47.59359,-54.27349
2018-05-16 14:30:00+00:00,329.0,327.0,6.29,6.77,,47.59359,-54.27349
2018-05-16 14:40:00+00:00,342.0,347.0,6.08,7.15,,47.59359,-54.27349
2018-05-16 14:50:00+00:00,311.0,312.0,7.15,8.47,,47.59359,-54.27349
2018-05-16 15:00:00+00:00,330.0,336.0,7.49,8.41,,47.59359,-54.27349
2018-05-16 15:10:00+00:00,345.0,346.0,6.42,7.22,,47.59359,-54.27349
2018-05-16 15:20:00+00:00,343.0,340.0,3.9,4.24,,47.59359,-54.27349
2018-05-16 15:30:00+00:00,339.0,342.0,6.08,7.37,,47.59359,-54.27349
2018-05-16 15:40:00+00:00,344.0,352.0,4.76,6.32,,47.59359,-54.27349
2018-05-16 15:50:00+00:00,341.0,341.0,6.05,7.16,,47.59359,-54.27349
2018-05-16 16:00:00+00:00,343.0,348.0,7.67,8.22,,47.59359,-54.27349
2018-05-16 16:10:00+00:00,338.0,336.0,8.17,9.89,,47.59359,-54.27349
2018-05-16 16:20:00+00:00,342.0,343.0,7.24,8.03,,47.59359,-54.27349
2018-05-16 16:30:00+00:00,344.0,344.0,5.71,6.35,,47.59359,-54.27349
2018-05-16 16:40:00+00:00,354.0,355.0,7.29,8.63,,47.59359,-54.27349
2018-05-16 16:50:00+00:00,335.0,330.0,7.26,8.42,,47.59359,-54.27349
2018-05-16 17:00:00+00:00,344.0,345.0,5.8,6.43,,47.59359,-54.27349
2018-05-16 17:10:00+00:00,340.0,335.0,5.93,8.19,,47.59359,-54.27349
2018-05-16 17:20:00+00:00,331.0,330.0,6.21,6.65,,47.59359,-54.27349
2018-05-16 17:30:00+00:00,347.0,348.0,5.09,6.2,,47.59359,-54.27349
2018-05-16 17:40:00+00:00,349.0,350.0,5.54,6.83,,47.59359,-54.27349
2018-05-16 17:50:00+00:00,354.0,353.0,4.56,5.44,,47.59359,-54.27349
2018-05-16 18:00:00+00:00,9.0,9.0,4.44,5.19,,47.59359,-54.27349
2018-05-16 18:10:00+00:00,6.0,0.0,3.19,3.68,,47.59359,-54.27349
2018-05-16 18:20:00+00:00,11.0,10.0,2.97,4.21,,47.59359,-54.27349
2018-05-16 18:30:00+00:00,332.0,340.0,4.34,5.58,,47.59359,-54.27349
2018-05-16 18:40:00+00:00,323.0,333.0,5.02,6.28,,47.59359,-54.27349
2018-05-16 18:50:00+00:00,305.0,307.0,6.63,7.48,,47.59359,-54.27349
2018-05-16 19:00:00+00:00,305.0,306.0,5.87,6.41,,47.59359,-54.27349
2018-05-16 19:10:00+00:00,324.0,325.0,4.89,5.37,,47.59359,-54.27349
2018-05-16 19:20:00+00:00,338.0,339.0,3.94,5.64,,47.59359,-54.27349
2018-05-16 19:30:00+00:00,317.0,312.0,3.81,4.75,,47.59359,-54.27349
2018-05-16 19:40:00+00:00,319.0,311.0,2.91,3.88,,47.59359,-54.27349
2018-05-16 19:50:00+00:00,351.0,349.0,4.88,5.41,,47.59359,-54.27349
2018-05-16 20:00:00+00:00,311.0,317.0,4.74,5.65,,47.59359,-54.27349
2018-05-16 20:10:00+00:00,338.0,336.0,4.99,5.72,,47.59359,-54.27349
2018-05-16 20:20:00+00:00,345.0,341.0,4.87,5.61,,47.59359,-54.27349
2018-05-16 20:30:00+00:00,324.0,328.0,5.93,7.14,,47.59359,-54.27349
2018-05-16 20:40:00+00:00,324.0,320.0,6.15,7.73,,47.59359,-54.27349
2018-05-16 20:50:00+00:00,325.0,326.0,6.68,7.58,,47.59359,-54.27349
2018-05-16 21:00:00+00:00,334.0,337.0,6.27,7.36,,47.59359,-54.27349
2018-05-16 21:10:00+00:00,350.0,353.0,5.58,6.62,,47.59359,-54.27349
2018-05-16 21:20:00+00:00,332.0,336.0,3.61,4.15,,47.59359,-54.27349
2018-05-16 21:30:00+00:00,340.0,342.0,4.4,4.98,,47.59359,-54.27349
2018-05-16 21:40:00+00:00,297.0,306.0,5.13,8.11,,47.59359,-54.27349
2018-05-16 21:50:00+00:00,290.0,286.0,4.46,4.86,,47.59359,-54.27349
2018-05-16 22:00:00+00:00,296.0,301.0,6.02,6.6,,47.59359,-54.27349
2018-05-16 22:10:00+00:00,304.0,304.0,5.8,6.54,,47.59359,-54.27349
2018-05-16 22:20:00+00:00,301.0,300.0,4.85,6.05,,47.59359,-54.27349
2018-05-16 22:30:00+00:00,300.0,301.0,4.36,4.69,,47.59359,-54.27349
2018-05-16 22:40:00+00:00,303.0,305.0,3.77,4.22,,47.59359,-54.27349
2018-05-16 22:50:00+00:00,292.0,296.0,3.61,4.51,,47.59359,-54.27349
2018-05-16 23:00:00+00:00,300.0,303.0,3.87,4.25,,47.59359,-54.27349
2018-05-16 23:10:00+00:00,307.0,307.0,3.46,3.75,,47.59359,-54.27349
2018-05-16 23:20:00+00:00,315.0,316.0,2.77,3.14,,47.59359,-54.27349
2018-05-16 23:30:00+00:00,297.0,297.0,2.81,3.43,,47.59359,-54.27349
2018-05-16 23:40:00+00:00,304.0,307.0,3.77,4.06,,47.59359,-54.27349
2018-05-16 23:50:00+00:00,313.0,311.0,3.62,4.06,,47.59359,-54.27349
